Tracking 31027 objects as of 19-Jul-2025
HD Live streaming from Space Station
objects crossing your sky now

STARLINK-30811

Track STARLINK-30811 now!
10-day predictions
STARLINK-30811 is classified as:


NORAD ID: 58167
Int'l Code: 2023-166T
Perigee: 481.6 km
Apogee: 483.2 km
Inclination: 53.2 °
Period: 94.1 minutes
Semi major axis: 6853 km
RCS: Unknown
Launch date: October 29, 2023
Source: United States (US)
Launch site: AIR FORCE WESTERN TEST RANGE (AFWTR)
Your satellite tracking list
IRIDIUM 135
Track 1 satellite(s)




NASA's NSSDC Master Catalog

Two Line Element Set (TLE):
1 58167U 23166T   25199.80632923  .00000244  00000-0  20385-4 0  9996
2 58167  53.1590 225.7737 0001205  82.2704 277.8434 15.30190077 97224
Source of the keplerian elements: AFSPC